WJA406 CYVR-CYLW

Flight info

Callsign WJA406
Flight time 0h 37m
Altitude 23000
Route JANEK DCT SEKAB SEKAB5
Aircraft B38M/M-SDE1FGHILORVWXY/HB1

Departure

Time 2026-05-03 21:24
Airport Vancouver International Airport (CYVR)

Arrival

Time 2026-05-03 22:01
Airport Kelowna International Airport (CYLW)
Time Latitude Longitude Altitude Speed Heading
2026-05-03 21:07 49.19178 -123.18153 13 ft 0 kts 11°
2026-05-03 21:14 49.19155 -123.18161 13 ft 4 kts 16°
2026-05-03 21:14 49.19130 -123.18176 13 ft 4 kts 34°
2026-05-03 21:14 49.19116 -123.18202 12 ft 4 kts 89°
2026-05-03 21:15 49.19116 -123.18211 12 ft 1 kts 101°
2026-05-03 21:20 49.19114 -123.18190 12 ft 7 kts 98°
2026-05-03 21:20 49.19084 -123.18057 12 ft 19 kts 146°
2026-05-03 21:21 49.18935 -123.18064 12 ft 16 kts 170°
2026-05-03 21:21 49.18900 -123.17949 12 ft 16 kts 93°
2026-05-03 21:21 49.18876 -123.17714 14 ft 29 kts 96°
2026-05-03 21:21 49.18843 -123.17436 12 ft 30 kts 101°
2026-05-03 21:22 49.18810 -123.17167 12 ft 32 kts 99°
2026-05-03 21:22 49.18769 -123.16794 12 ft 34 kts 96°
2026-05-03 21:22 49.18728 -123.16447 12 ft 38 kts 100°
2026-05-03 21:22 49.18648 -123.16214 12 ft 20 kts 137°
2026-05-03 21:23 49.18554 -123.16205 13 ft 13 kts 191°
2026-05-03 21:23 49.18499 -123.16307 13 ft 14 kts 278°
2026-05-03 21:23 49.18553 -123.16771 10 ft 86 kts 281°
2026-05-03 21:23 49.18701 -123.18066 58 ft 153 kts 279°
2026-05-03 21:24 49.18862 -123.19760 845 ft 165 kts 277°
2026-05-03 21:24 49.19010 -123.21578 1714 ft 180 kts 277°
2026-05-03 21:24 49.19202 -123.23577 2328 ft 200 kts 279°
2026-05-03 21:24 49.19420 -123.25786 2896 ft 225 kts 279°
2026-05-03 21:25 49.19666 -123.28279 3544 ft 245 kts 278°
2026-05-03 21:25 49.19921 -123.30868 4538 ft 253 kts 278°
2026-05-03 21:25 49.20225 -123.33626 5276 ft 271 kts 286°
2026-05-03 21:25 49.21222 -123.36038 6257 ft 271 kts 321°
2026-05-03 21:26 49.22932 -123.37229 7172 ft 276 kts 354°
2026-05-03 21:26 49.24850 -123.37185 8183 ft 275 kts
2026-05-03 21:26 49.26696 -123.36949 9292 ft 252 kts
2026-05-03 21:26 49.28436 -123.36723 9740 ft 251 kts
2026-05-03 21:27 49.30038 -123.35854 9726 ft 242 kts 40°
2026-05-03 21:27 49.31036 -123.33819 9751 ft 242 kts 65°
2026-05-03 21:27 49.31823 -123.31517 9958 ft 246 kts 54°
2026-05-03 21:27 49.32782 -123.29445 10808 ft 241 kts 54°
2026-05-03 21:28 49.33751 -123.27303 11497 ft 249 kts 54°
2026-05-03 21:28 49.34756 -123.25062 12078 ft 263 kts 54°
2026-05-03 21:28 49.35827 -123.22662 12495 ft 283 kts 54°
2026-05-03 21:28 49.36965 -123.20102 13033 ft 297 kts 54°
2026-05-03 21:29 49.38154 -123.17413 13512 ft 314 kts 54°
2026-05-03 21:29 49.39417 -123.14557 13932 ft 329 kts 54°
2026-05-03 21:29 49.40691 -123.11654 14564 ft 329 kts 55°
2026-05-03 21:29 49.41971 -123.08724 15247 ft 331 kts 54°
2026-05-03 21:30 49.43257 -123.05775 15933 ft 333 kts 55°
2026-05-03 21:30 49.44545 -123.02814 16624 ft 334 kts 55°
2026-05-03 21:30 49.45835 -122.99847 17339 ft 334 kts 55°
2026-05-03 21:30 49.47124 -122.96877 18027 ft 334 kts 55°
2026-05-03 21:31 49.48413 -122.93906 18663 ft 334 kts 54°
2026-05-03 21:31 49.49701 -122.90934 19270 ft 333 kts 54°
2026-05-03 21:31 49.50985 -122.87967 19887 ft 333 kts 54°
2026-05-03 21:31 49.52270 -122.84999 20484 ft 336 kts 54°
2026-05-03 21:32 49.53594 -122.81937 20683 ft 352 kts 54°
2026-05-03 21:32 49.54993 -122.78708 20754 ft 370 kts 54°
2026-05-03 21:32 49.56460 -122.75317 20818 ft 389 kts 54°
2026-05-03 21:32 49.57993 -122.71764 20832 ft 407 kts 55°
2026-05-03 21:33 49.59571 -122.68098 20864 ft 424 kts 55°
2026-05-03 21:33 49.61226 -122.64243 20932 ft 437 kts 55°
2026-05-03 21:33 49.62911 -122.60305 21386 ft 440 kts 55°
2026-05-03 21:33 49.64596 -122.56359 21915 ft 441 kts 55°
2026-05-03 21:34 49.66288 -122.52391 22362 ft 444 kts 55°
2026-05-03 21:34 49.68082 -122.48505 22802 ft 445 kts 48°
2026-05-03 21:34 49.70090 -122.44828 22950 ft 447 kts 49°
2026-05-03 21:34 49.72068 -122.41128 22991 ft 446 kts 49°
2026-05-03 21:35 49.74029 -122.37415 22991 ft 446 kts 49°
2026-05-03 21:35 49.75980 -122.33692 22987 ft 445 kts 49°
2026-05-03 21:35 49.77928 -122.29960 22987 ft 446 kts 49°
2026-05-03 21:35 49.79876 -122.26223 22990 ft 446 kts 49°
2026-05-03 21:36 49.81825 -122.22478 22976 ft 447 kts 49°
2026-05-03 21:36 49.83775 -122.18725 22984 ft 447 kts 49°
2026-05-03 21:36 49.85728 -122.14965 22960 ft 447 kts 49°
2026-05-03 21:36 49.87674 -122.11208 22998 ft 448 kts 49°
2026-05-03 21:37 49.89623 -122.07442 22980 ft 447 kts 49°
2026-05-03 21:37 49.91571 -122.03674 22960 ft 448 kts 49°
2026-05-03 21:37 49.93521 -121.99895 22993 ft 448 kts 49°
2026-05-03 21:37 49.95466 -121.96120 22974 ft 448 kts 49°
2026-05-03 21:38 49.97420 -121.92323 22976 ft 449 kts 49°
2026-05-03 21:38 49.99369 -121.88529 22994 ft 449 kts 49°
2026-05-03 21:38 50.01313 -121.84739 22983 ft 449 kts 49°
2026-05-03 21:38 50.03256 -121.80946 22987 ft 448 kts 49°
2026-05-03 21:39 50.05175 -121.77198 22995 ft 442 kts 49°
2026-05-03 21:39 50.07017 -121.73431 22847 ft 434 kts 56°
2026-05-03 21:39 50.08232 -121.69165 22551 ft 433 kts 73°
2026-05-03 21:39 50.08654 -121.64530 22308 ft 435 kts 86°
2026-05-03 21:40 50.08734 -121.59826 21977 ft 434 kts 87°
2026-05-03 21:40 50.08776 -121.55135 21667 ft 433 kts 87°
2026-05-03 21:40 50.08796 -121.50461 21348 ft 430 kts 88°
2026-05-03 21:40 50.08800 -121.45814 21040 ft 428 kts 88°
2026-05-03 21:41 50.08796 -121.41199 20711 ft 425 kts 88°
2026-05-03 21:41 50.08789 -121.36603 20422 ft 424 kts 88°
2026-05-03 21:41 50.08780 -121.32026 20122 ft 421 kts 88°
2026-05-03 21:41 50.08769 -121.27468 19806 ft 420 kts 88°
2026-05-03 21:42 50.08755 -121.22942 19511 ft 418 kts 88°
2026-05-03 21:42 50.08740 -121.18429 19208 ft 416 kts 88°
2026-05-03 21:42 50.08723 -121.13938 18905 ft 414 kts 88°
2026-05-03 21:42 50.08707 -121.09902 18625 ft 412 kts 88°
2026-05-03 21:43 50.08687 -121.05448 18338 ft 411 kts 89°
2026-05-03 21:43 50.08666 -121.01063 18016 ft 409 kts 89°
2026-05-03 21:43 50.08643 -120.96586 17690 ft 407 kts 88°
2026-05-03 21:43 50.08620 -120.92247 17395 ft 405 kts 88°
2026-05-03 21:44 50.08593 -120.87867 17114 ft 403 kts 88°
2026-05-03 21:44 50.08565 -120.83517 16823 ft 401 kts 89°
2026-05-03 21:44 50.08538 -120.79178 16558 ft 400 kts 89°
2026-05-03 21:44 50.08507 -120.74859 16221 ft 398 kts 89°
2026-05-03 21:45 50.08475 -120.70566 15950 ft 395 kts 89°
2026-05-03 21:45 50.08441 -120.66242 15670 ft 394 kts 89°
2026-05-03 21:45 50.08406 -120.62044 15390 ft 392 kts 89°
2026-05-03 21:45 50.08370 -120.57815 15108 ft 390 kts 89°
2026-05-03 21:46 50.08333 -120.53602 14820 ft 388 kts 89°
2026-05-03 21:46 50.08294 -120.49417 14556 ft 386 kts 89°
2026-05-03 21:46 50.08254 -120.45242 14283 ft 385 kts 89°
2026-05-03 21:46 50.08213 -120.41138 14101 ft 368 kts 88°
2026-05-03 21:47 50.08172 -120.37292 14098 ft 343 kts 88°
2026-05-03 21:47 50.08133 -120.33701 14097 ft 320 kts 88°
2026-05-03 21:47 50.08097 -120.30349 14095 ft 299 kts 88°
2026-05-03 21:47 50.08060 -120.27211 14090 ft 279 kts 88°
2026-05-03 21:48 50.08027 -120.24264 14091 ft 270 kts 88°
2026-05-03 21:48 50.07995 -120.21372 13999 ft 263 kts 88°
2026-05-03 21:48 50.07961 -120.18500 13574 ft 268 kts 88°
2026-05-03 21:48 50.07927 -120.15566 13126 ft 274 kts 88°
2026-05-03 21:49 50.07889 -120.12575 12665 ft 279 kts 88°
2026-05-03 21:49 50.07850 -120.09520 12203 ft 286 kts 88°
2026-05-03 21:49 50.07808 -120.06397 11742 ft 291 kts 88°
2026-05-03 21:49 50.07767 -120.03241 11432 ft 291 kts 88°
2026-05-03 21:50 50.07725 -120.00152 11196 ft 280 kts 88°
2026-05-03 21:50 50.07684 -119.97182 10985 ft 268 kts 88°
2026-05-03 21:50 50.07642 -119.94337 10776 ft 257 kts 88°
2026-05-03 21:50 50.07604 -119.91593 10602 ft 258 kts 87°
2026-05-03 21:51 50.07563 -119.88802 10418 ft 257 kts 88°
2026-05-03 21:51 50.07522 -119.86020 10229 ft 257 kts 88°
2026-05-03 21:51 50.07480 -119.83231 10049 ft 257 kts 88°
2026-05-03 21:51 50.07438 -119.80446 9850 ft 257 kts 88°
2026-05-03 21:52 50.07396 -119.77670 9625 ft 255 kts 88°
2026-05-03 21:52 50.07228 -119.74920 9434 ft 258 kts 105°
2026-05-03 21:52 50.06314 -119.72551 9253 ft 259 kts 137°
2026-05-03 21:52 50.04773 -119.71137 9142 ft 260 kts 163°
2026-05-03 21:53 50.03023 -119.70397 9078 ft 262 kts 166°
2026-05-03 21:53 50.01265 -119.69664 8957 ft 260 kts 166°
2026-05-03 21:53 49.99536 -119.68957 8830 ft 260 kts 166°
2026-05-03 21:53 49.97784 -119.68251 8696 ft 259 kts 166°
2026-05-03 21:54 49.96033 -119.67599 8571 ft 258 kts 171°
2026-05-03 21:54 49.94266 -119.67163 8379 ft 256 kts 172°
2026-05-03 21:54 49.92502 -119.66725 8279 ft 257 kts 171°
2026-05-03 21:54 49.90739 -119.66277 8161 ft 256 kts 172°
2026-05-03 21:55 49.88982 -119.65826 8045 ft 255 kts 171°
2026-05-03 21:55 49.87228 -119.65386 7850 ft 256 kts 172°
2026-05-03 21:55 49.85459 -119.64948 7519 ft 257 kts 172°
2026-05-03 21:55 49.83698 -119.64510 7225 ft 256 kts 172°
2026-05-03 21:56 49.82544 -119.64171 7023 ft 255 kts 165°
2026-05-03 21:56 49.80899 -119.63146 6692 ft 256 kts 147°
2026-05-03 21:56 49.79596 -119.61303 6386 ft 254 kts 123°
2026-05-03 21:56 49.78836 -119.58883 6074 ft 249 kts 102°
2026-05-03 21:57 49.78653 -119.56259 5795 ft 243 kts 83°
2026-05-03 21:57 49.79026 -119.53734 5471 ft 240 kts 63°
2026-05-03 21:57 49.79888 -119.51554 5172 ft 237 kts 45°
2026-05-03 21:57 49.81058 -119.49761 4861 ft 237 kts 40°
2026-05-03 21:58 49.82245 -119.47986 4552 ft 237 kts 41°
2026-05-03 21:58 49.83332 -119.46041 4247 ft 241 kts 53°
2026-05-03 21:58 49.84108 -119.43753 3863 ft 241 kts 68°
2026-05-03 21:58 49.84731 -119.41376 3481 ft 242 kts 60°
2026-05-03 21:59 49.85657 -119.39219 3148 ft 235 kts 47°
2026-05-03 21:59 49.86848 -119.37671 2897 ft 210 kts 29°
2026-05-03 21:59 49.88101 -119.36869 2684 ft 181 kts
2026-05-03 21:59 49.89265 -119.36845 2532 ft 155 kts 353°
2026-05-03 22:00 49.90287 -119.37034 2362 ft 144 kts 353°
2026-05-03 22:00 49.91271 -119.37171 2132 ft 140 kts 354°
2026-05-03 22:00 49.92234 -119.37306 1948 ft 137 kts 355°
2026-05-03 22:00 49.93177 -119.37443 1735 ft 137 kts 355°
2026-05-03 22:01 49.94123 -119.37583 1539 ft 137 kts 354°
2026-05-03 22:01 49.95058 -119.37702 1395 ft 127 kts 353°
2026-05-03 22:01 49.95725 -119.37799 1412 ft 63 kts 355°
2026-05-03 22:01 49.96080 -119.37847 1422 ft 40 kts 354°
2026-05-03 22:02 49.96370 -119.37890 1425 ft 44 kts 355°
2026-05-03 22:02 49.96600 -119.37960 1430 ft 11 kts 303°
2026-05-03 22:02 49.96570 -119.38055 1431 ft 14 kts 179°
2026-05-03 22:02 49.96450 -119.38035 1427 ft 21 kts 174°
2026-05-03 22:03 49.96338 -119.38019 1425 ft 13 kts 174°
2026-05-03 22:03 49.96219 -119.37994 1422 ft 21 kts 174°
2026-05-03 22:03 49.96052 -119.37980 1420 ft 20 kts 174°
2026-05-03 22:03 49.95916 -119.37959 1414 ft 23 kts 174°
2026-05-03 22:04 49.95760 -119.37941 1413 ft 20 kts 174°
2026-05-03 22:04 49.95593 -119.37915 1409 ft 29 kts 174°
2026-05-03 22:04 49.95381 -119.37890 1405 ft 25 kts 174°
2026-05-03 22:04 49.95193 -119.37862 1399 ft 16 kts 175°
2026-05-03 22:05 49.95151 -119.37921 1394 ft 3 kts 302°
2026-05-03 22:05 49.95175 -119.37966 1402 ft 8 kts 296°